owner,sensor,date,latitude,longitude,vertical_datum,sea_water_temperature,qcFlag 
WAVCIS,ioos:station:WAVCIS:CSI16:1,2009-08-01T00:00:00Z,29.4012,-89.0355,10.0,26.941,11111222 
WAVCIS,ioos:station:WAVCIS:CSI16:1,2009-08-01T00:15:00Z,29.4012,-89.0355,10.0,26.539,11111222 
WAVCIS,ioos:station:WAVCIS:CSI16:1,2009-08-01T00:30:00Z,29.4012,-89.0355,10.0,25.749,11111222 
WAVCIS,ioos:station:WAVCIS:CSI16:1,2009-08-01T00:45:00Z,29.4012,-89.0355,10.0,25.768,11111222 
WAVCIS,ioos:station:WAVCIS:CSI16:1,2009-08-01T01:00:00Z,29.4012,-89.0355,10.0,25.827,11111222 
WAVCIS,ioos:station:WAVCIS:CSI16:1,2009-08-01T01:15:00Z,29.4012,-89.0355,10.0,26.041,11111222 
WAVCIS,ioos:station:WAVCIS:CSI16:1,2009-08-01T01:30:00Z,29.4012,-89.0355,10.0,25.501,11111222 
WAVCIS,ioos:station:WAVCIS:CSI16:1,2009-08-01T01:45:00Z,29.4012,-89.0355,10.0,25.637,11111222 
WAVCIS,ioos:station:WAVCIS:CSI16:1,2009-08-01T02:00:00Z,29.4012,-89.0355,10.0,25.379,11111222 
WAVCIS,ioos:station:WAVCIS:CSI16:1,2009-08-01T02:15:00Z,29.4012,-89.0355,10.0,25.19,11111222 
WAVCIS,ioos:station:WAVCIS:CSI16:1,2009-08-01T02:30:00Z,29.4012,-89.0355,10.0,24.963,11111222 
WAVCIS,ioos:station:WAVCIS:CSI16:1,2009-08-01T02:45:00Z,29.4012,-89.0355,10.0,24.934,11111222 
WAVCIS,ioos:station:WAVCIS:CSI16:1,2009-08-01T03:00:00Z,29.4012,-89.0355,10.0,26.514,11111222 
WAVCIS,ioos:station:WAVCIS:CSI16:1,2009-08-01T03:15:00Z,29.4012,-89.0355,10.0,26.269,11111222 
WAVCIS,ioos:station:WAVCIS:CSI16:1,2009-08-01T03:30:00Z,29.4012,-89.0355,10.0,26.223,11111222 
WAVCIS,ioos:station:WAVCIS:CSI16:1,2009-08-01T03:45:00Z,29.4012,-89.0355,10.0,26.103,11111222 
WAVCIS,ioos:station:WAVCIS:CSI16:1,2009-08-01T04:00:00Z,29.4012,-89.0355,10.0,25.764,11111222 
WAVCIS,ioos:station:WAVCIS:CSI16:1,2009-08-01T04:15:00Z,29.4012,-89.0355,10.0,26.008,11111222 
WAVCIS,ioos:station:WAVCIS:CSI16:1,2009-08-01T04:30:00Z,29.4012,-89.0355,10.0,25.426,11111222 
WAVCIS,ioos:station:WAVCIS:CSI16:1,2009-08-01T04:45:00Z,29.4012,-89.0355,10.0,25.002,11111222 
WAVCIS,ioos:station:WAVCIS:CSI16:1,2009-08-01T05:00:00Z,29.4012,-89.0355,10.0,24.934,11111222 
WAVCIS,ioos:station:WAVCIS:CSI16:1,2009-08-01T05:15:00Z,29.4012,-89.0355,10.0,25.11,11111222 
WAVCIS,ioos:station:WAVCIS:CSI16:1,2009-08-01T05:30:00Z,29.4012,-89.0355,10.0,25.196,11111222 
WAVCIS,ioos:station:WAVCIS:CSI16:1,2009-08-01T05:45:00Z,29.4012,-89.0355,10.0,25.183,11111222 
WAVCIS,ioos:station:WAVCIS:CSI16:1,2009-08-01T06:00:00Z,29.4012,-89.0355,10.0,25.477,11111222 
WAVCIS,ioos:station:WAVCIS:CSI16:1,2009-08-01T06:15:00Z,29.4012,-89.0355,10.0,24.983,11111222 
WAVCIS,ioos:station:WAVCIS:CSI16:1,2009-08-01T06:30:00Z,29.4012,-89.0355,10.0,25.668,11111222 
WAVCIS,ioos:station:WAVCIS:CSI16:1,2009-08-01T06:45:00Z,29.4012,-89.0355,10.0,25.812,11111222 
WAVCIS,ioos:station:WAVCIS:CSI16:1,2009-08-01T07:00:00Z,29.4012,-89.0355,10.0,26.149,11111222 
WAVCIS,ioos:station:WAVCIS:CSI16:1,2009-08-01T07:15:00Z,29.4012,-89.0355,10.0,26.35,11111222 
WAVCIS,ioos:station:WAVCIS:CSI16:1,2009-08-01T07:30:00Z,29.4012,-89.0355,10.0,26.12,11111222 
WAVCIS,ioos:station:WAVCIS:CSI16:1,2009-08-01T07:45:00Z,29.4012,-89.0355,10.0,26.087,11111222 
WAVCIS,ioos:station:WAVCIS:CSI16:1,2009-08-01T08:00:00Z,29.4012,-89.0355,10.0,25.909,11111222 
WAVCIS,ioos:station:WAVCIS:CSI16:1,2009-08-01T08:15:00Z,29.4012,-89.0355,10.0,26.0,11111222 
WAVCIS,ioos:station:WAVCIS:CSI16:1,2009-08-01T08:30:00Z,29.4012,-89.0355,10.0,25.931,11111222 
WAVCIS,ioos:station:WAVCIS:CSI16:1,2009-08-01T08:45:00Z,29.4012,-89.0355,10.0,25.942,11111222 
WAVCIS,ioos:station:WAVCIS:CSI16:1,2009-08-01T09:00:00Z,29.4012,-89.0355,10.0,26.182,11111222 
WAVCIS,ioos:station:WAVCIS:CSI16:1,2009-08-01T09:15:00Z,29.4012,-89.0355,10.0,25.805,11111222 
WAVCIS,ioos:station:WAVCIS:CSI16:1,2009-08-01T09:30:00Z,29.4012,-89.0355,10.0,25.782,11111222 
WAVCIS,ioos:station:WAVCIS:CSI16:1,2009-08-01T09:45:00Z,29.4012,-89.0355,10.0,25.926,11111222 
WAVCIS,ioos:station:WAVCIS:CSI16:1,2009-08-01T10:00:00Z,29.4012,-89.0355,10.0,26.192,11111222 
WAVCIS,ioos:station:WAVCIS:CSI16:1,2009-08-01T10:15:00Z,29.4012,-89.0355,10.0,25.778,11111222 
WAVCIS,ioos:station:WAVCIS:CSI16:1,2009-08-01T10:30:00Z,29.4012,-89.0355,10.0,25.612,11111222 
WAVCIS,ioos:station:WAVCIS:CSI16:1,2009-08-01T10:45:00Z,29.4012,-89.0355,10.0,25.677,11111222 
WAVCIS,ioos:station:WAVCIS:CSI16:1,2009-08-01T11:00:00Z,29.4012,-89.0355,10.0,25.601,11111222 
WAVCIS,ioos:station:WAVCIS:CSI16:1,2009-08-01T11:15:00Z,29.4012,-89.0355,10.0,25.989,11111222 
WAVCIS,ioos:station:WAVCIS:CSI16:1,2009-08-01T11:30:00Z,29.4012,-89.0355,10.0,26.404,11111222 
WAVCIS,ioos:station:WAVCIS:CSI16:1,2009-08-01T11:45:00Z,29.4012,-89.0355,10.0,26.738,11111222 
WAVCIS,ioos:station:WAVCIS:CSI16:1,2009-08-01T12:00:00Z,29.4012,-89.0355,10.0,27.622,11111222 
WAVCIS,ioos:station:WAVCIS:CSI16:1,2009-08-01T12:15:00Z,29.4012,-89.0355,10.0,27.564,11111222 
WAVCIS,ioos:station:WAVCIS:CSI16:1,2009-08-01T12:30:00Z,29.4012,-89.0355,10.0,27.644,11111222 
WAVCIS,ioos:station:WAVCIS:CSI16:1,2009-08-01T12:45:00Z,29.4012,-89.0355,10.0,27.73,11111222 
WAVCIS,ioos:station:WAVCIS:CSI16:1,2009-08-01T13:00:00Z,29.4012,-89.0355,10.0,27.789,11111222 
WAVCIS,ioos:station:WAVCIS:CSI16:1,2009-08-01T13:15:00Z,29.4012,-89.0355,10.0,28.075,11111222 
WAVCIS,ioos:station:WAVCIS:CSI16:1,2009-08-01T13:30:00Z,29.4012,-89.0355,10.0,27.948,11111222 
WAVCIS,ioos:station:WAVCIS:CSI16:1,2009-08-01T13:45:00Z,29.4012,-89.0355,10.0,27.85,11111222 
WAVCIS,ioos:station:WAVCIS:CSI16:1,2009-08-01T14:00:00Z,29.4012,-89.0355,10.0,27.824,11111222 
WAVCIS,ioos:station:WAVCIS:CSI16:1,2009-08-01T14:15:00Z,29.4012,-89.0355,10.0,27.972,11111222 
WAVCIS,ioos:station:WAVCIS:CSI16:1,2009-08-01T14:30:00Z,29.4012,-89.0355,10.0,27.806,11111222 
WAVCIS,ioos:station:WAVCIS:CSI16:1,2009-08-01T14:45:00Z,29.4012,-89.0355,10.0,27.765,11111222 
WAVCIS,ioos:station:WAVCIS:CSI16:1,2009-08-01T15:00:00Z,29.4012,-89.0355,10.0,27.748,11111222 
WAVCIS,ioos:station:WAVCIS:CSI16:1,2009-08-01T15:15:00Z,29.4012,-89.0355,10.0,27.564,11111222 
WAVCIS,ioos:station:WAVCIS:CSI16:1,2009-08-01T15:30:00Z,29.4012,-89.0355,10.0,27.528,11111222 
WAVCIS,ioos:station:WAVCIS:CSI16:1,2009-08-01T15:45:00Z,29.4012,-89.0355,10.0,27.37,11111222 
WAVCIS,ioos:station:WAVCIS:CSI16:1,2009-08-01T16:00:00Z,29.4012,-89.0355,10.0,27.688,11111222 
WAVCIS,ioos:station:WAVCIS:CSI16:1,2009-08-01T16:15:00Z,29.4012,-89.0355,10.0,27.585,11111222 
WAVCIS,ioos:station:WAVCIS:CSI16:1,2009-08-01T16:30:00Z,29.4012,-89.0355,10.0,27.782,11111222 
WAVCIS,ioos:station:WAVCIS:CSI16:1,2009-08-01T16:45:00Z,29.4012,-89.0355,10.0,27.655,11111222 
WAVCIS,ioos:station:WAVCIS:CSI16:1,2009-08-01T17:00:00Z,29.4012,-89.0355,10.0,28.035,11111222 
WAVCIS,ioos:station:WAVCIS:CSI16:1,2009-08-01T17:15:00Z,29.4012,-89.0355,10.0,28.22,11111222 
WAVCIS,ioos:station:WAVCIS:CSI16:1,2009-08-01T17:30:00Z,29.4012,-89.0355,10.0,28.105,11111222 
WAVCIS,ioos:station:WAVCIS:CSI16:1,2009-08-01T17:45:00Z,29.4012,-89.0355,10.0,28.032,11111222 
WAVCIS,ioos:station:WAVCIS:CSI16:1,2009-08-01T18:00:00Z,29.4012,-89.0355,10.0,27.593,11111222 
WAVCIS,ioos:station:WAVCIS:CSI16:1,2009-08-01T18:15:00Z,29.4012,-89.0355,10.0,27.854,11111222 
WAVCIS,ioos:station:WAVCIS:CSI16:1,2009-08-01T18:30:00Z,29.4012,-89.0355,10.0,27.769,11111222 
WAVCIS,ioos:station:WAVCIS:CSI16:1,2009-08-01T18:45:00Z,29.4012,-89.0355,10.0,27.732,11111222 
WAVCIS,ioos:station:WAVCIS:CSI16:1,2009-08-01T19:00:00Z,29.4012,-89.0355,10.0,27.594,11111222 
WAVCIS,ioos:station:WAVCIS:CSI16:1,2009-08-01T19:15:00Z,29.4012,-89.0355,10.0,27.507,11111222 
WAVCIS,ioos:station:WAVCIS:CSI16:1,2009-08-01T19:30:00Z,29.4012,-89.0355,10.0,27.158,11111222 
WAVCIS,ioos:station:WAVCIS:CSI16:1,2009-08-01T19:45:00Z,29.4012,-89.0355,10.0,26.991,11111222 
WAVCIS,ioos:station:WAVCIS:CSI16:1,2009-08-01T20:00:00Z,29.4012,-89.0355,10.0,26.789,11111222 
WAVCIS,ioos:station:WAVCIS:CSI16:1,2009-08-01T20:15:00Z,29.4012,-89.0355,10.0,26.699,11111222 
WAVCIS,ioos:station:WAVCIS:CSI16:1,2009-08-01T20:30:00Z,29.4012,-89.0355,10.0,26.739,11111222 
WAVCIS,ioos:station:WAVCIS:CSI16:1,2009-08-01T20:45:00Z,29.4012,-89.0355,10.0,29.643,11111222 
WAVCIS,ioos:station:WAVCIS:CSI16:1,2009-08-01T21:00:00Z,29.4012,-89.0355,10.0,28.646,11111222 
WAVCIS,ioos:station:WAVCIS:CSI16:1,2009-08-01T21:15:00Z,29.4012,-89.0355,10.0,30.573,11111222 
WAVCIS,ioos:station:WAVCIS:CSI16:1,2009-08-01T21:30:00Z,29.4012,-89.0355,10.0,28.043,11111222 
WAVCIS,ioos:station:WAVCIS:CSI16:1,2009-08-01T21:45:00Z,29.4012,-89.0355,10.0,27.009,11111222 
WAVCIS,ioos:station:WAVCIS:CSI16:1,2009-08-01T22:00:00Z,29.4012,-89.0355,10.0,26.225,11111222 
WAVCIS,ioos:station:WAVCIS:CSI16:1,2009-08-01T22:15:00Z,29.4012,-89.0355,10.0,25.952,11111222 
WAVCIS,ioos:station:WAVCIS:CSI16:1,2009-08-01T22:30:00Z,29.4012,-89.0355,10.0,26.067,11111222 
WAVCIS,ioos:station:WAVCIS:CSI16:1,2009-08-01T22:45:00Z,29.4012,-89.0355,10.0,26.306,11111222 
WAVCIS,ioos:station:WAVCIS:CSI16:1,2009-08-01T23:00:00Z,29.4012,-89.0355,10.0,26.698,11111222 
WAVCIS,ioos:station:WAVCIS:CSI16:1,2009-08-01T23:15:00Z,29.4012,-89.0355,10.0,26.288,11111222 
WAVCIS,ioos:station:WAVCIS:CSI16:1,2009-08-01T23:30:00Z,29.4012,-89.0355,10.0,26.376,11111222 
WAVCIS,ioos:station:WAVCIS:CSI16:1,2009-08-01T23:45:00Z,29.4012,-89.0355,10.0,26.315,11111222 
WAVCIS,ioos:station:WAVCIS:CSI16:1,2009-08-02T00:00:00Z,29.4012,-89.0355,10.0,26.581,11111222 
WAVCIS,ioos:station:WAVCIS:CSI16:1,2009-08-02T00:15:00Z,29.4012,-89.0355,10.0,26.782,11111222 
WAVCIS,ioos:station:WAVCIS:CSI16:1,2009-08-02T00:30:00Z,29.4012,-89.0355,10.0,27.294,11111222 
WAVCIS,ioos:station:WAVCIS:CSI16:1,2009-08-02T00:45:00Z,29.4012,-89.0355,10.0,27.279,11111222 
WAVCIS,ioos:station:WAVCIS:CSI16:1,2009-08-02T01:00:00Z,29.4012,-89.0355,10.0,27.236,11111222 
WAVCIS,ioos:station:WAVCIS:CSI16:1,2009-08-02T01:15:00Z,29.4012,-89.0355,10.0,27.295,11111222 
WAVCIS,ioos:station:WAVCIS:CSI16:1,2009-08-02T01:30:00Z,29.4012,-89.0355,10.0,27.225,11111222 
WAVCIS,ioos:station:WAVCIS:CSI16:1,2009-08-02T01:45:00Z,29.4012,-89.0355,10.0,27.387,11111222 
WAVCIS,ioos:station:WAVCIS:CSI16:1,2009-08-02T02:00:00Z,29.4012,-89.0355,10.0,27.047,11111222 
WAVCIS,ioos:station:WAVCIS:CSI16:1,2009-08-02T02:15:00Z,29.4012,-89.0355,10.0,27.241,11111222 
WAVCIS,ioos:station:WAVCIS:CSI16:1,2009-08-02T02:30:00Z,29.4012,-89.0355,10.0,27.41,11111222 
WAVCIS,ioos:station:WAVCIS:CSI16:1,2009-08-02T02:45:00Z,29.4012,-89.0355,10.0,27.553,11111222 
WAVCIS,ioos:station:WAVCIS:CSI16:1,2009-08-02T03:00:00Z,29.4012,-89.0355,10.0,27.685,11111222 
WAVCIS,ioos:station:WAVCIS:CSI16:1,2009-08-02T03:15:00Z,29.4012,-89.0355,10.0,27.588,11111222 
WAVCIS,ioos:station:WAVCIS:CSI16:1,2009-08-02T03:30:00Z,29.4012,-89.0355,10.0,27.43,11111222 
WAVCIS,ioos:station:WAVCIS:CSI16:1,2009-08-02T03:45:00Z,29.4012,-89.0355,10.0,27.068,11111222 
WAVCIS,ioos:station:WAVCIS:CSI16:1,2009-08-02T04:00:00Z,29.4012,-89.0355,10.0,26.823,11111222 
WAVCIS,ioos:station:WAVCIS:CSI16:1,2009-08-02T04:15:00Z,29.4012,-89.0355,10.0,26.805,11111222 
WAVCIS,ioos:station:WAVCIS:CSI16:1,2009-08-02T04:30:00Z,29.4012,-89.0355,10.0,26.364,11111222 
WAVCIS,ioos:station:WAVCIS:CSI16:1,2009-08-02T04:45:00Z,29.4012,-89.0355,10.0,25.711,11111222 
WAVCIS,ioos:station:WAVCIS:CSI16:1,2009-08-02T05:00:00Z,29.4012,-89.0355,10.0,25.351,11111222 
WAVCIS,ioos:station:WAVCIS:CSI16:1,2009-08-02T05:15:00Z,29.4012,-89.0355,10.0,25.042,11111222 
WAVCIS,ioos:station:WAVCIS:CSI16:1,2009-08-02T05:30:00Z,29.4012,-89.0355,10.0,24.781,11111222 
WAVCIS,ioos:station:WAVCIS:CSI16:1,2009-08-02T05:45:00Z,29.4012,-89.0355,10.0,24.675,11111222 
WAVCIS,ioos:station:WAVCIS:CSI16:1,2009-08-02T06:00:00Z,29.4012,-89.0355,10.0,24.53,11111222 
WAVCIS,ioos:station:WAVCIS:CSI16:1,2009-08-02T06:15:00Z,29.4012,-89.0355,10.0,24.772,11111222 
WAVCIS,ioos:station:WAVCIS:CSI16:1,2009-08-02T06:30:00Z,29.4012,-89.0355,10.0,24.928,11111222 
WAVCIS,ioos:station:WAVCIS:CSI16:1,2009-08-02T06:45:00Z,29.4012,-89.0355,10.0,24.785,11111222 
WAVCIS,ioos:station:WAVCIS:CSI16:1,2009-08-02T07:00:00Z,29.4012,-89.0355,10.0,24.718,11111222 
WAVCIS,ioos:station:WAVCIS:CSI16:1,2009-08-02T07:15:00Z,29.4012,-89.0355,10.0,24.749,11111222 
WAVCIS,ioos:station:WAVCIS:CSI16:1,2009-08-02T07:30:00Z,29.4012,-89.0355,10.0,24.745,11111222 
WAVCIS,ioos:station:WAVCIS:CSI16:1,2009-08-02T07:45:00Z,29.4012,-89.0355,10.0,25.0,11111222 
WAVCIS,ioos:station:WAVCIS:CSI16:1,2009-08-02T08:00:00Z,29.4012,-89.0355,10.0,25.442,11111222 
WAVCIS,ioos:station:WAVCIS:CSI16:1,2009-08-02T08:15:00Z,29.4012,-89.0355,10.0,25.31,11111222 
WAVCIS,ioos:station:WAVCIS:CSI16:1,2009-08-02T08:30:00Z,29.4012,-89.0355,10.0,25.276,11111222 
WAVCIS,ioos:station:WAVCIS:CSI16:1,2009-08-02T08:45:00Z,29.4012,-89.0355,10.0,25.293,11111222 
WAVCIS,ioos:station:WAVCIS:CSI16:1,2009-08-02T09:00:00Z,29.4012,-89.0355,10.0,25.489,11111222 
WAVCIS,ioos:station:WAVCIS:CSI16:1,2009-08-02T09:15:00Z,29.4012,-89.0355,10.0,25.753,11111222 
WAVCIS,ioos:station:WAVCIS:CSI16:1,2009-08-02T09:30:00Z,29.4012,-89.0355,10.0,26.069,11111222 
WAVCIS,ioos:station:WAVCIS:CSI16:1,2009-08-02T09:45:00Z,29.4012,-89.0355,10.0,26.142,11111222 
WAVCIS,ioos:station:WAVCIS:CSI16:1,2009-08-02T10:00:00Z,29.4012,-89.0355,10.0,26.217,11111222 
WAVCIS,ioos:station:WAVCIS:CSI16:1,2009-08-02T10:15:00Z,29.4012,-89.0355,10.0,26.179,11111222 
WAVCIS,ioos:station:WAVCIS:CSI16:1,2009-08-02T10:30:00Z,29.4012,-89.0355,10.0,26.396,11111222 
WAVCIS,ioos:station:WAVCIS:CSI16:1,2009-08-02T10:45:00Z,29.4012,-89.0355,10.0,26.399,11111222 
WAVCIS,ioos:station:WAVCIS:CSI16:1,2009-08-02T11:00:00Z,29.4012,-89.0355,10.0,26.458,11111222 
WAVCIS,ioos:station:WAVCIS:CSI16:1,2009-08-02T11:15:00Z,29.4012,-89.0355,10.0,26.233,11111222 
WAVCIS,ioos:station:WAVCIS:CSI16:1,2009-08-02T11:30:00Z,29.4012,-89.0355,10.0,26.45,11111222 
WAVCIS,ioos:station:WAVCIS:CSI16:1,2009-08-02T11:45:00Z,29.4012,-89.0355,10.0,26.114,11111222 
WAVCIS,ioos:station:WAVCIS:CSI16:1,2009-08-02T12:00:00Z,29.4012,-89.0355,10.0,25.937,11111222 
WAVCIS,ioos:station:WAVCIS:CSI16:1,2009-08-02T12:15:00Z,29.4012,-89.0355,10.0,26.138,11111222 
WAVCIS,ioos:station:WAVCIS:CSI16:1,2009-08-02T12:30:00Z,29.4012,-89.0355,10.0,26.451,11111222 
WAVCIS,ioos:station:WAVCIS:CSI16:1,2009-08-02T12:45:00Z,29.4012,-89.0355,10.0,26.416,11111222 
WAVCIS,ioos:station:WAVCIS:CSI16:1,2009-08-02T13:00:00Z,29.4012,-89.0355,10.0,26.36,11111222 
WAVCIS,ioos:station:WAVCIS:CSI16:1,2009-08-02T13:15:00Z,29.4012,-89.0355,10.0,25.951,11111222 
WAVCIS,ioos:station:WAVCIS:CSI16:1,2009-08-02T13:30:00Z,29.4012,-89.0355,10.0,26.215,11111222 
WAVCIS,ioos:station:WAVCIS:CSI16:1,2009-08-02T13:45:00Z,29.4012,-89.0355,10.0,26.199,11111222 
WAVCIS,ioos:station:WAVCIS:CSI16:1,2009-08-02T14:00:00Z,29.4012,-89.0355,10.0,26.102,11111222 
WAVCIS,ioos:station:WAVCIS:CSI16:1,2009-08-02T14:15:00Z,29.4012,-89.0355,10.0,26.817,11111222 
WAVCIS,ioos:station:WAVCIS:CSI16:1,2009-08-02T14:30:00Z,29.4012,-89.0355,10.0,27.27,11111222 
WAVCIS,ioos:station:WAVCIS:CSI16:1,2009-08-02T14:45:00Z,29.4012,-89.0355,10.0,27.544,11111222 
WAVCIS,ioos:station:WAVCIS:CSI16:1,2009-08-02T15:00:00Z,29.4012,-89.0355,10.0,27.665,11111222 
WAVCIS,ioos:station:WAVCIS:CSI16:1,2009-08-02T15:15:00Z,29.4012,-89.0355,10.0,27.396,11111222 
WAVCIS,ioos:station:WAVCIS:CSI16:1,2009-08-02T15:30:00Z,29.4012,-89.0355,10.0,27.442,11111222 
WAVCIS,ioos:station:WAVCIS:CSI16:1,2009-08-02T15:45:00Z,29.4012,-89.0355,10.0,27.028,11111222 
WAVCIS,ioos:station:WAVCIS:CSI16:1,2009-08-02T16:00:00Z,29.4012,-89.0355,10.0,27.136,11111222 
WAVCIS,ioos:station:WAVCIS:CSI16:1,2009-08-02T16:15:00Z,29.4012,-89.0355,10.0,26.953,11111222 
WAVCIS,ioos:station:WAVCIS:CSI16:1,2009-08-02T16:30:00Z,29.4012,-89.0355,10.0,27.08,11111222 
WAVCIS,ioos:station:WAVCIS:CSI16:1,2009-08-02T16:45:00Z,29.4012,-89.0355,10.0,26.871,11111222 
WAVCIS,ioos:station:WAVCIS:CSI16:1,2009-08-02T17:00:00Z,29.4012,-89.0355,10.0,26.737,11111222 
WAVCIS,ioos:station:WAVCIS:CSI16:1,2009-08-02T17:15:00Z,29.4012,-89.0355,10.0,26.626,11111222 
WAVCIS,ioos:station:WAVCIS:CSI16:1,2009-08-02T17:30:00Z,29.4012,-89.0355,10.0,26.658,11111222 
WAVCIS,ioos:station:WAVCIS:CSI16:1,2009-08-02T17:45:00Z,29.4012,-89.0355,10.0,26.543,11111222 
WAVCIS,ioos:station:WAVCIS:CSI16:1,2009-08-02T18:00:00Z,29.4012,-89.0355,10.0,26.992,11111222 
WAVCIS,ioos:station:WAVCIS:CSI16:1,2009-08-02T18:15:00Z,29.4012,-89.0355,10.0,27.824,11111222 
WAVCIS,ioos:station:WAVCIS:CSI16:1,2009-08-02T18:30:00Z,29.4012,-89.0355,10.0,27.819,11111222 
WAVCIS,ioos:station:WAVCIS:CSI16:1,2009-08-02T18:45:00Z,29.4012,-89.0355,10.0,27.868,11111222 
WAVCIS,ioos:station:WAVCIS:CSI16:1,2009-08-02T19:00:00Z,29.4012,-89.0355,10.0,27.854,11111222 
WAVCIS,ioos:station:WAVCIS:CSI16:1,2009-08-02T19:15:00Z,29.4012,-89.0355,10.0,27.933,11111222 
WAVCIS,ioos:station:WAVCIS:CSI16:1,2009-08-02T19:30:00Z,29.4012,-89.0355,10.0,27.936,11111222 
WAVCIS,ioos:station:WAVCIS:CSI16:1,2009-08-02T19:45:00Z,29.4012,-89.0355,10.0,28.028,11111222 
WAVCIS,ioos:station:WAVCIS:CSI16:1,2009-08-02T20:00:00Z,29.4012,-89.0355,10.0,28.128,11111222 
WAVCIS,ioos:station:WAVCIS:CSI16:1,2009-08-02T20:15:00Z,29.4012,-89.0355,10.0,28.095,11111222 
WAVCIS,ioos:station:WAVCIS:CSI16:1,2009-08-02T20:30:00Z,29.4012,-89.0355,10.0,28.22,11111222 
WAVCIS,ioos:station:WAVCIS:CSI16:1,2009-08-02T20:45:00Z,29.4012,-89.0355,10.0,28.091,11111222 
WAVCIS,ioos:station:WAVCIS:CSI16:1,2009-08-02T21:00:00Z,29.4012,-89.0355,10.0,28.639,11111222 
WAVCIS,ioos:station:WAVCIS:CSI16:1,2009-08-02T21:15:00Z,29.4012,-89.0355,10.0,29.114,11111222 
WAVCIS,ioos:station:WAVCIS:CSI16:1,2009-08-02T21:30:00Z,29.4012,-89.0355,10.0,28.93,11111222 
WAVCIS,ioos:station:WAVCIS:CSI16:1,2009-08-02T21:45:00Z,29.4012,-89.0355,10.0,28.985,11111222 
WAVCIS,ioos:station:WAVCIS:CSI16:1,2009-08-02T22:00:00Z,29.4012,-89.0355,10.0,28.179,11111222 
WAVCIS,ioos:station:WAVCIS:CSI16:1,2009-08-02T22:15:00Z,29.4012,-89.0355,10.0,27.145,11111222 
WAVCIS,ioos:station:WAVCIS:CSI16:1,2009-08-02T22:30:00Z,29.4012,-89.0355,10.0,27.048,11111222 
WAVCIS,ioos:station:WAVCIS:CSI16:1,2009-08-02T22:45:00Z,29.4012,-89.0355,10.0,26.944,11111222 
WAVCIS,ioos:station:WAVCIS:CSI16:1,2009-08-02T23:00:00Z,29.4012,-89.0355,10.0,26.464,11111222 
WAVCIS,ioos:station:WAVCIS:CSI16:1,2009-08-02T23:15:00Z,29.4012,-89.0355,10.0,26.22,11111222 
WAVCIS,ioos:station:WAVCIS:CSI16:1,2009-08-02T23:30:00Z,29.4012,-89.0355,10.0,26.581,11111222 
WAVCIS,ioos:station:WAVCIS:CSI16:1,2009-08-02T23:45:00Z,29.4012,-89.0355,10.0,26.223,11111222 
WAVCIS,ioos:station:WAVCIS:CSI16:1,2009-08-03T00:00:00Z,29.4012,-89.0355,10.0,26.079,11111222 
WAVCIS,ioos:station:WAVCIS:CSI16:1,2009-08-03T00:15:00Z,29.4012,-89.0355,10.0,26.19,11111222 
WAVCIS,ioos:station:WAVCIS:CSI16:1,2009-08-03T00:30:00Z,29.4012,-89.0355,10.0,27.625,11111222 
WAVCIS,ioos:station:WAVCIS:CSI16:1,2009-08-03T00:45:00Z,29.4012,-89.0355,10.0,27.302,11111222 
WAVCIS,ioos:station:WAVCIS:CSI16:1,2009-08-03T01:00:00Z,29.4012,-89.0355,10.0,27.149,11111222 
WAVCIS,ioos:station:WAVCIS:CSI16:1,2009-08-03T01:15:00Z,29.4012,-89.0355,10.0,27.493,11111222 
WAVCIS,ioos:station:WAVCIS:CSI16:1,2009-08-03T01:30:00Z,29.4012,-89.0355,10.0,27.563,11111222 
WAVCIS,ioos:station:WAVCIS:CSI16:1,2009-08-03T01:45:00Z,29.4012,-89.0355,10.0,27.531,11111222 
WAVCIS,ioos:station:WAVCIS:CSI16:1,2009-08-03T02:00:00Z,29.4012,-89.0355,10.0,27.478,11111222 
WAVCIS,ioos:station:WAVCIS:CSI16:1,2009-08-03T02:15:00Z,29.4012,-89.0355,10.0,27.253,11111222 
WAVCIS,ioos:station:WAVCIS:CSI16:1,2009-08-03T02:30:00Z,29.4012,-89.0355,10.0,26.817,11111222 
WAVCIS,ioos:station:WAVCIS:CSI16:1,2009-08-03T02:45:00Z,29.4012,-89.0355,10.0,26.64,11111222 
WAVCIS,ioos:station:WAVCIS:CSI16:1,2009-08-03T03:00:00Z,29.4012,-89.0355,10.0,26.791,11111222 
WAVCIS,ioos:station:WAVCIS:CSI16:1,2009-08-03T03:15:00Z,29.4012,-89.0355,10.0,27.361,11111222 
WAVCIS,ioos:station:WAVCIS:CSI16:1,2009-08-03T03:30:00Z,29.4012,-89.0355,10.0,27.435,11111222 
WAVCIS,ioos:station:WAVCIS:CSI16:1,2009-08-03T03:45:00Z,29.4012,-89.0355,10.0,26.472,11111222 
WAVCIS,ioos:station:WAVCIS:CSI16:1,2009-08-03T04:00:00Z,29.4012,-89.0355,10.0,27.086,11111222 
WAVCIS,ioos:station:WAVCIS:CSI16:1,2009-08-03T04:15:00Z,29.4012,-89.0355,10.0,26.769,11111222 
WAVCIS,ioos:station:WAVCIS:CSI16:1,2009-08-03T04:30:00Z,29.4012,-89.0355,10.0,26.123,11111222 
WAVCIS,ioos:station:WAVCIS:CSI16:1,2009-08-03T04:45:00Z,29.4012,-89.0355,10.0,25.41,11111222 
WAVCIS,ioos:station:WAVCIS:CSI16:1,2009-08-03T05:00:00Z,29.4012,-89.0355,10.0,25.512,11111222 
WAVCIS,ioos:station:WAVCIS:CSI16:1,2009-08-03T05:15:00Z,29.4012,-89.0355,10.0,25.274,11111222 
WAVCIS,ioos:station:WAVCIS:CSI16:1,2009-08-03T05:30:00Z,29.4012,-89.0355,10.0,25.505,11111222 
WAVCIS,ioos:station:WAVCIS:CSI16:1,2009-08-03T05:45:00Z,29.4012,-89.0355,10.0,25.175,11111222 
WAVCIS,ioos:station:WAVCIS:CSI16:1,2009-08-03T06:00:00Z,29.4012,-89.0355,10.0,25.085,11111222 
WAVCIS,ioos:station:WAVCIS:CSI16:1,2009-08-03T06:15:00Z,29.4012,-89.0355,10.0,25.072,11111222 
WAVCIS,ioos:station:WAVCIS:CSI16:1,2009-08-03T06:30:00Z,29.4012,-89.0355,10.0,27.051,11111222 
WAVCIS,ioos:station:WAVCIS:CSI16:1,2009-08-03T06:45:00Z,29.4012,-89.0355,10.0,26.99,11111222 
WAVCIS,ioos:station:WAVCIS:CSI16:1,2009-08-03T07:00:00Z,29.4012,-89.0355,10.0,27.214,11111222 
WAVCIS,ioos:station:WAVCIS:CSI16:1,2009-08-03T07:15:00Z,29.4012,-89.0355,10.0,27.1,11111222 
WAVCIS,ioos:station:WAVCIS:CSI16:1,2009-08-03T07:30:00Z,29.4012,-89.0355,10.0,28.275,11111222 
WAVCIS,ioos:station:WAVCIS:CSI16:1,2009-08-03T07:45:00Z,29.4012,-89.0355,10.0,27.912,11111222 
WAVCIS,ioos:station:WAVCIS:CSI16:1,2009-08-03T08:00:00Z,29.4012,-89.0355,10.0,28.306,11111222 
WAVCIS,ioos:station:WAVCIS:CSI16:1,2009-08-03T08:15:00Z,29.4012,-89.0355,10.0,28.17,11111222 
WAVCIS,ioos:station:WAVCIS:CSI16:1,2009-08-03T08:30:00Z,29.4012,-89.0355,10.0,28.08,11111222 
WAVCIS,ioos:station:WAVCIS:CSI16:1,2009-08-03T08:45:00Z,29.4012,-89.0355,10.0,28.513,11111222 
WAVCIS,ioos:station:WAVCIS:CSI16:1,2009-08-03T09:00:00Z,29.4012,-89.0355,10.0,28.382,11111222 
WAVCIS,ioos:station:WAVCIS:CSI16:1,2009-08-03T09:15:00Z,29.4012,-89.0355,10.0,26.581,11111222 
WAVCIS,ioos:station:WAVCIS:CSI16:1,2009-08-03T09:30:00Z,29.4012,-89.0355,10.0,26.083,11111222 
WAVCIS,ioos:station:WAVCIS:CSI16:1,2009-08-03T09:45:00Z,29.4012,-89.0355,10.0,26.08,11111222 
WAVCIS,ioos:station:WAVCIS:CSI16:1,2009-08-03T10:00:00Z,29.4012,-89.0355,10.0,25.904,11111222 
WAVCIS,ioos:station:WAVCIS:CSI16:1,2009-08-03T10:15:00Z,29.4012,-89.0355,10.0,27.583,11111222 
WAVCIS,ioos:station:WAVCIS:CSI16:1,2009-08-03T10:30:00Z,29.4012,-89.0355,10.0,28.551,11111222 
WAVCIS,ioos:station:WAVCIS:CSI16:1,2009-08-03T10:45:00Z,29.4012,-89.0355,10.0,28.326,11111222 
WAVCIS,ioos:station:WAVCIS:CSI16:1,2009-08-03T11:00:00Z,29.4012,-89.0355,10.0,28.612,11111222 
WAVCIS,ioos:station:WAVCIS:CSI16:1,2009-08-03T11:15:00Z,29.4012,-89.0355,10.0,28.524,11111222 
WAVCIS,ioos:station:WAVCIS:CSI16:1,2009-08-03T11:30:00Z,29.4012,-89.0355,10.0,28.711,11111222 
WAVCIS,ioos:station:WAVCIS:CSI16:1,2009-08-03T11:45:00Z,29.4012,-89.0355,10.0,27.654,11111222 
WAVCIS,ioos:station:WAVCIS:CSI16:1,2009-08-03T12:00:00Z,29.4012,-89.0355,10.0,29.051,11111222 
WAVCIS,ioos:station:WAVCIS:CSI16:1,2009-08-03T12:15:00Z,29.4012,-89.0355,10.0,27.353,11111222 
WAVCIS,ioos:station:WAVCIS:CSI16:1,2009-08-03T12:30:00Z,29.4012,-89.0355,10.0,27.77,11111222 
WAVCIS,ioos:station:WAVCIS:CSI16:1,2009-08-03T12:45:00Z,29.4012,-89.0355,10.0,27.277,11111222 
WAVCIS,ioos:station:WAVCIS:CSI16:1,2009-08-03T13:00:00Z,29.4012,-89.0355,10.0,27.248,11111222 
WAVCIS,ioos:station:WAVCIS:CSI16:1,2009-08-03T13:15:00Z,29.4012,-89.0355,10.0,27.051,11111222 
WAVCIS,ioos:station:WAVCIS:CSI16:1,2009-08-03T13:30:00Z,29.4012,-89.0355,10.0,26.995,11111222 
WAVCIS,ioos:station:WAVCIS:CSI16:1,2009-08-03T13:45:00Z,29.4012,-89.0355,10.0,26.941,11111222 
WAVCIS,ioos:station:WAVCIS:CSI16:1,2009-08-03T14:00:00Z,29.4012,-89.0355,10.0,26.902,11111222 
WAVCIS,ioos:station:WAVCIS:CSI16:1,2009-08-03T14:15:00Z,29.4012,-89.0355,10.0,26.88,11111222 
WAVCIS,ioos:station:WAVCIS:CSI16:1,2009-08-03T14:30:00Z,29.4012,-89.0355,10.0,26.803,11111222 
WAVCIS,ioos:station:WAVCIS:CSI16:1,2009-08-03T14:45:00Z,29.4012,-89.0355,10.0,26.784,11111222 